period_start,C,m1,H,J0,J1,J2,J3,J4,J5,JA,JB,JC,JD,JJ,JK,JN,#
2016-03-08 00:01:33,0.06,0.62,0.00,23.23,27.82,31.63,14.56,49.03,1014.85,2031.84,3277.01,2964.30,3357.25,599.89,594.41,8.40,0000 0000 0000 0000 000000
2016-03-08 00:06:34,0.07,0.63,0.00,23.08,27.82,31.51,14.50,49.03,1014.75,2031.80,3275.44,2963.27,3356.03,599.74,594.49,8.45,0000 0000 0000 0000 000000
2016-03-08 00:11:36,0.08,0.63,0.00,23.01,27.80,31.43,14.61,49.06,1014.81,2031.92,3273.79,2962.30,3354.89,600.08,594.94,8.50,0000 0000 0000 0000 000000
2016-03-08 00:16:37,0.07,0.63,0.00,22.97,27.80,31.41,14.58,48.92,1015.02,2031.97,3272.41,2961.37,3353.77,599.76,594.87,8.55,0000 0000 0000 0000 000000
2016-03-08 00:21:38,0.07,0.64,0.00,22.97,27.77,31.38,14.62,48.93,1015.15,2031.98,3270.92,2960.41,3352.68,600.14,595.38,8.60,0000 0000 0000 0000 000000
2016-03-08 00:26:39,0.06,0.64,0.00,22.96,27.76,31.35,14.63,48.94,1015.16,2031.99,3269.59,2959.61,3351.63,600.24,595.57,8.65,0000 0000 0000 0000 000000
2016-03-08 00:31:40,0.06,0.64,0.00,22.98,27.75,31.30,14.52,48.78,1015.20,2031.99,3268.18,2958.67,3350.40,599.83,595.18,8.70,0000 0000 0000 0000 000000
2016-03-08 00:36:41,0.07,0.65,0.00,23.08,27.73,31.31,14.57,48.73,1015.57,2031.99,3266.71,2957.72,3349.26,600.12,595.25,8.75,0000 0000 0000 0000 000000
2016-03-08 00:41:43,0.06,0.65,0.00,23.36,27.72,31.25,14.54,48.73,1015.42,2031.99,3265.31,2956.76,3348.10,600.42,595.02,8.80,0000 0000 0000 0000 000000
2016-03-08 00:46:44,0.07,0.65,0.00,23.54,27.75,31.21,14.49,48.81,1015.19,2031.99,3263.89,2955.72,3346.85,599.72,593.78,8.85,0000 0000 0000 0000 000000
2016-03-08 00:51:45,0.07,0.66,0.00,23.62,27.75,31.28,14.52,48.68,1015.21,2031.99,3262.53,2954.61,3345.58,600.36,594.28,8.90,0000 0000 0000 0000 000000
2016-03-08 00:56:47,0.07,0.66,0.00,23.68,27.76,31.41,14.40,48.81,1015.57,2031.99,3260.88,2953.49,3344.30,599.94,594.00,8.95,0000 0000 0000 0000 000000
2016-03-08 01:01:48,0.07,0.67,0.00,23.73,27.77,31.45,14.51,48.67,1015.65,2031.98,3259.30,2952.37,3342.86,600.26,594.18,9.00,0000 0000 0000 0000 000000
2016-03-08 01:06:49,0.07,0.67,0.00,23.76,27.80,31.50,14.51,48.69,1015.65,2031.91,3257.58,2951.22,3341.54,599.98,593.85,9.05,0000 0000 0000 0000 000000
2016-03-08 01:11:51,0.07,0.67,0.00,23.79,27.81,31.53,14.46,48.87,1015.65,2031.85,3255.88,2950.03,3340.20,599.76,593.56,9.10,0000 0000 0000 0000 000000
2016-03-08 01:16:52,0.05,0.68,0.00,23.76,27.83,31.57,14.49,48.79,1015.64,2031.54,3254.24,2948.89,3338.79,599.99,593.85,9.15,0000 0000 0000 0000 000000
2016-03-08 01:21:53,0.07,0.68,0.00,23.79,27.85,31.60,14.43,48.88,1015.64,2031.37,3252.56,2947.75,3337.53,599.55,593.45,9.20,0000 0000 0000 0000 000000
2016-03-08 01:26:54,0.05,0.68,0.00,23.77,27.87,31.62,14.50,49.00,1015.64,2031.09,3250.86,2946.64,3336.15,600.02,593.95,9.25,0000 0000 0000 0000 000000
2016-03-08 01:31:55,0.07,0.69,0.00,23.74,27.89,31.63,14.52,48.95,1015.64,2031.04,3249.23,2945.50,3334.80,600.31,594.19,9.30,0000 0000 0000 0000 000000
2016-03-08 01:36:56,0.08,0.69,0.00,23.68,27.90,31.69,14.54,48.94,1015.94,2031.01,3247.58,2944.39,3333.46,599.62,593.91,9.35,0000 0000 0000 0000 000000
2016-03-08 01:41:58,0.07,0.69,0.00,23.64,27.92,31.75,14.50,48.87,1016.14,2031.00,3245.90,2943.41,3332.11,599.67,594.15,9.40,0000 0000 0000 0000 000000
2016-03-08 01:46:59,0.08,0.70,0.00,23.68,27.93,31.74,14.57,48.91,1016.14,2031.00,3244.25,2942.21,3330.76,600.02,594.33,9.45,0000 0000 0000 0000 000000
2016-03-08 01:52:00,0.08,0.70,0.00,23.77,27.95,31.73,14.54,48.83,1016.13,2031.00,3242.60,2940.98,3329.38,600.03,594.06,9.50,0000 0000 0000 0000 000000
2016-03-08 01:57:02,0.08,0.71,0.00,23.85,27.97,31.72,14.54,48.99,1016.14,2030.99,3240.88,2939.81,3327.89,600.02,594.15,9.55,0000 0000 0000 0000 000000
2016-03-08 02:02:03,0.07,0.71,0.00,23.91,27.99,31.71,14.53,48.98,1016.14,2030.96,3239.31,2938.70,3326.67,600.37,594.17,9.60,0000 0000 0000 0000 000000
2016-03-08 02:07:04,0.07,0.71,0.00,23.91,28.01,31.71,14.51,48.83,1016.14,2030.95,3237.82,2937.65,3325.44,600.24,594.14,9.65,0000 0000 0000 0000 000000
2016-03-08 02:12:05,0.06,0.72,0.00,23.94,28.04,31.74,14.50,48.87,1016.13,2030.91,3236.45,2936.58,3324.13,600.03,594.01,9.70,0000 0000 0000 0000 000000
2016-03-08 02:17:06,0.05,0.72,0.00,24.02,28.06,31.74,14.45,48.84,1016.14,2030.65,3234.77,2935.47,3322.74,599.85,593.50,9.75,0000 0000 0000 0000 000000
2016-03-08 02:22:08,0.04,0.72,0.00,24.05,28.09,31.74,14.55,48.89,1016.13,2030.20,3233.16,2934.31,3321.36,600.29,593.93,9.80,0000 0000 0000 0000 000000
2016-03-08 02:27:09,0.07,0.73,0.00,24.06,28.10,31.76,14.46,48.83,1016.15,2030.07,3231.56,2933.19,3320.03,599.68,593.28,9.85,0000 0000 0000 0000 000000
2016-03-08 02:32:10,0.07,0.73,0.00,24.08,28.12,31.77,14.52,48.83,1016.16,2030.03,3229.96,2932.16,3318.74,599.86,593.44,9.90,0000 0000 0000 0000 000000
2016-03-08 02:37:11,0.07,0.73,0.00,24.10,28.14,31.77,14.39,48.75,1016.15,2030.02,3228.38,2931.06,3317.46,599.66,593.19,9.95,0000 0000 0000 0000 000000
2016-03-08 02:42:13,0.08,0.74,0.00,24.12,28.16,31.80,14.47,48.77,1016.15,2030.00,3226.75,2929.91,3316.17,599.82,593.34,10.00,0000 0000 0000 0000 000000
2016-03-08 02:47:14,0.07,0.74,0.00,24.17,28.17,31.80,14.49,48.77,1016.24,2030.00,3225.22,2928.83,3314.83,600.18,593.56,10.05,0000 0000 0000 0000 000000
2016-03-08 02:52:15,0.08,0.74,0.00,24.22,28.18,31.80,14.48,48.69,1016.19,2030.00,3223.54,2927.76,3313.54,600.06,593.51,10.10,0000 0000 0000 0000 000000
2016-03-08 02:57:17,0.07,0.75,0.00,24.23,28.20,31.81,14.45,48.80,1016.40,2030.00,3221.98,2926.68,3312.29,599.95,593.33,10.15,0000 0000 0000 0000 000000
2016-03-08 03:02:18,0.08,0.75,0.00,24.25,28.21,31.81,14.48,48.83,1016.51,2029.98,3220.39,2925.56,3310.90,599.81,593.24,10.20,0000 0000 0000 0000 000000
2016-03-08 03:07:20,0.07,0.76,0.00,24.29,28.23,31.83,14.40,48.88,1016.41,2029.92,3218.74,2924.42,3309.57,599.78,593.08,10.25,0000 0000 0000 0000 000000
2016-03-08 03:12:21,0.07,0.76,0.00,24.34,28.25,31.83,14.47,48.89,1016.35,2029.89,3217.23,2923.38,3308.34,599.68,592.99,10.30,0000 0000 0000 0000 000000
2016-03-08 03:17:22,0.05,0.76,0.00,24.34,28.26,31.84,14.47,48.76,1016.28,2029.69,3215.62,2922.25,3307.01,599.80,592.97,10.35,0000 0000 0000 0000 000000
2016-03-08 03:22:23,0.04,0.77,0.00,24.36,28.27,31.84,14.49,48.81,1016.34,2029.33,3213.98,2921.13,3305.68,600.17,593.32,10.40,0000 0000 0000 0000 000000
2016-03-08 03:27:24,0.06,0.77,0.00,24.39,28.29,31.84,14.46,48.85,1016.59,2029.17,3212.42,2920.04,3304.41,599.95,593.23,10.45,0000 0000 0000 0000 000000
2016-03-08 03:32:25,0.07,0.77,0.00,24.45,28.30,31.83,14.46,48.88,1016.51,2029.06,3210.79,2918.98,3303.11,600.05,593.12,10.50,0000 0000 0000 0000 000000
2016-03-08 03:37:26,0.07,0.78,0.00,24.43,28.30,31.83,14.43,48.86,1016.50,2029.04,3209.30,2917.93,3301.85,600.01,593.09,10.55,0000 0000 0000 0000 000000
2016-03-08 03:42:28,0.08,0.78,0.00,24.45,28.32,31.83,14.49,48.80,1016.60,2029.02,3207.69,2916.84,3300.62,599.84,593.01,10.60,0000 0000 0000 0000 000000
2016-03-08 03:47:29,0.07,0.78,0.00,24.49,28.32,31.82,14.47,48.83,1016.59,2029.00,3206.06,2915.76,3299.30,600.04,593.12,10.65,0000 0000 0000 0000 000000
2016-03-08 03:52:30,0.08,0.79,0.00,24.51,28.32,31.81,14.49,48.85,1016.59,2029.00,3204.50,2914.67,3297.99,600.33,593.32,10.70,0000 0000 0000 0000 000000
2016-03-08 03:57:31,0.08,0.79,0.00,24.50,28.32,31.80,14.49,48.90,1016.59,2029.00,3202.86,2913.59,3296.72,599.84,592.82,10.75,0000 0000 0000 0000 000000
2016-03-08 04:02:33,0.07,0.80,0.00,24.51,28.32,31.80,14.30,48.76,1016.58,2029.00,3201.33,2912.58,3295.54,599.79,592.79,10.80,0000 0000 0000 0000 000000
2016-03-08 04:07:34,0.08,0.80,0.00,24.53,28.32,31.78,14.49,48.88,1016.57,2029.00,3199.64,2911.49,3294.18,599.88,592.84,10.86,0000 0000 0000 0000 000000
2016-03-08 04:12:35,0.07,0.80,0.00,24.56,28.32,31.75,14.51,48.83,1016.57,2029.00,3198.13,2910.33,3292.87,600.26,593.22,10.91,0000 0000 0000 0000 000000
2016-03-08 04:17:37,0.07,0.81,0.00,24.57,28.32,31.76,14.34,48.94,1016.40,2029.00,3196.60,2909.32,3291.68,600.04,592.74,10.96,0000 0000 0000 0000 000000
2016-03-08 04:22:38,0.06,0.81,0.00,24.58,28.32,31.74,14.44,49.00,1016.34,2029.00,3195.14,2908.33,3290.51,600.03,592.69,11.01,0000 0000 0000 0000 000000
2016-03-08 04:27:39,0.07,0.82,0.00,24.59,28.32,31.75,14.43,48.92,1016.49,2029.00,3193.58,2907.28,3289.28,599.85,592.52,11.06,0000 0000 0000 0000 000000
2016-03-08 04:32:41,0.07,0.82,0.00,24.58,28.32,31.73,14.48,48.96,1016.57,2029.00,3192.08,2906.30,3288.00,600.06,592.96,11.11,0000 0000 0000 0000 000000
2016-03-08 04:37:42,0.08,0.82,0.00,24.61,28.30,31.72,14.41,48.92,1016.52,2029.00,3190.60,2905.28,3286.77,599.66,592.46,11.16,0000 0000 0000 0000 000000
2016-03-08 04:42:43,0.07,0.83,0.00,24.63,28.30,31.72,14.45,48.98,1016.60,2029.00,3189.16,2904.31,3285.59,599.90,592.67,11.21,0000 0000 0000 0000 000000
2016-03-08 04:47:45,0.07,0.83,0.00,24.67,28.30,31.72,14.51,49.00,1016.62,2029.00,3187.59,2903.25,3284.37,600.20,592.87,11.26,0000 0000 0000 0000 000000
2016-03-08 04:52:46,0.07,0.83,0.00,24.71,28.30,31.70,14.44,48.98,1016.62,2029.00,3186.06,2902.19,3283.15,599.91,592.37,11.31,0000 0000 0000 0000 000000
2016-03-08 04:57:48,0.08,0.84,0.00,24.72,28.30,31.67,14.46,49.13,1016.62,2029.00,3184.43,2901.17,3281.84,600.21,592.82,11.36,0000 0000 0000 0000 000000
2016-03-08 05:02:49,0.08,0.84,0.00,24.70,28.28,31.66,14.37,48.85,1016.62,2029.00,3182.77,2900.12,3280.55,599.89,592.53,11.41,0000 0000 0000 0000 000000
2016-03-08 05:07:50,0.07,0.85,0.00,24.72,28.27,31.65,14.45,48.92,1016.65,2029.00,3181.13,2899.05,3279.27,600.08,592.60,11.46,0000 0000 0000 0000 000000
2016-03-08 05:12:52,0.07,0.85,0.00,24.74,28.26,31.64,14.52,48.85,1016.64,2029.00,3179.65,2898.04,3278.06,600.42,592.88,11.51,0000 0000 0000 0000 000000
2016-03-08 05:17:53,0.07,0.85,0.00,24.75,28.25,31.65,14.52,48.96,1016.62,2029.00,3178.05,2897.02,3276.86,600.26,592.80,11.56,0000 0000 0000 0000 000000
2016-03-08 05:22:54,0.07,0.86,0.00,24.75,28.24,31.63,14.32,48.63,1016.63,2029.00,3176.44,2896.03,3275.66,599.61,592.18,11.61,0000 0000 0000 0000 000000
2016-03-08 05:27:56,0.07,0.86,0.00,24.79,28.22,31.61,14.44,48.88,1016.64,2029.00,3174.89,2895.04,3274.45,600.04,592.54,11.66,0000 0000 0000 0000 000000
2016-03-08 05:32:57,0.07,0.86,0.00,24.80,28.22,31.61,14.36,48.91,1016.66,2029.00,3173.39,2894.07,3273.26,599.60,592.05,11.71,0000 0000 0000 0000 000000
2016-03-08 05:37:58,0.07,0.87,0.00,24.80,28.22,31.60,14.41,48.90,1016.65,2029.00,3171.86,2893.08,3272.05,599.92,592.38,11.76,0000 0000 0000 0000 000000
2016-03-08 05:42:59,0.07,0.87,0.00,24.82,28.20,31.59,14.47,48.92,1016.66,2029.01,3170.39,2892.10,3270.85,600.19,592.49,11.81,0000 0000 0000 0000 000000
2016-03-08 05:48:01,0.06,0.88,0.00,24.82,28.20,31.58,14.41,48.88,1016.66,2029.01,3168.92,2891.18,3269.77,599.94,592.36,11.86,0000 0000 0000 0000 000000
2016-03-08 05:53:02,0.07,0.88,0.00,24.83,28.20,31.56,14.52,48.92,1016.70,2029.02,3167.54,2890.21,3268.59,600.08,592.50,11.91,0000 0000 0000 0000 000000
2016-03-08 05:58:03,0.07,0.88,0.00,24.82,28.20,31.54,14.47,48.80,1016.82,2029.01,3166.06,2889.29,3267.51,599.74,592.31,11.96,0000 0000 0000 0000 000000
2016-03-08 06:03:04,0.07,0.89,0.00,24.83,28.18,31.54,14.48,48.83,1016.81,2029.06,3164.63,2888.38,3266.35,600.07,592.50,12.01,0000 0000 0000 0000 000000
2016-03-08 06:08:06,0.06,0.89,0.00,24.85,28.17,31.52,14.43,48.85,1016.84,2029.04,3163.22,2887.40,3265.17,599.97,592.47,12.06,0000 0000 0000 0000 000000
2016-03-08 06:13:07,0.07,0.89,0.00,24.86,28.17,31.51,14.40,48.97,1016.87,2029.06,3161.72,2886.38,3264.01,600.15,592.63,12.11,0000 0000 0000 0000 000000
2016-03-08 06:18:08,0.06,0.90,0.00,24.87,28.17,31.48,14.43,48.83,1016.95,2029.09,3160.37,2885.57,3263.01,600.02,592.53,12.16,0000 0000 0000 0000 000000
2016-03-08 06:23:09,0.07,0.90,0.00,24.87,28.17,31.47,14.46,48.82,1016.94,2029.05,3158.91,2884.55,3261.97,600.15,592.69,12.21,0000 0000 0000 0000 000000
2016-03-08 06:28:11,0.07,0.90,0.00,24.87,28.17,31.46,14.39,48.93,1016.90,2029.08,3157.38,2883.62,3260.81,600.14,592.61,12.26,0000 0000 0000 0000 000000
2016-03-08 06:33:12,0.07,0.91,0.00,24.87,28.17,31.46,14.44,49.06,1016.76,2029.05,3155.83,2882.64,3259.66,600.00,592.46,12.31,0000 0000 0000 0000 000000
2016-03-08 06:38:14,0.07,0.91,0.00,24.89,28.17,31.44,14.44,49.02,1016.71,2029.13,3154.44,2881.74,3258.58,599.89,592.12,12.36,0000 0000 0000 0000 000000
2016-03-08 06:43:15,0.06,0.92,0.00,24.90,28.15,31.45,14.37,48.98,1016.67,2029.07,3152.91,2880.75,3257.44,600.01,592.28,12.41,0000 0000 0000 0000 000000
2016-03-08 06:48:16,0.06,0.92,0.00,24.89,28.15,31.42,14.41,48.98,1016.67,2029.04,3151.58,2879.82,3256.27,600.06,592.27,12.46,0000 0000 0000 0000 000000
2016-03-08 06:53:18,0.06,0.92,0.00,24.89,28.15,31.42,14.44,48.95,1016.70,2029.05,3150.11,2879.03,3255.18,600.07,592.36,12.51,0000 0000 0000 0000 000000
2016-03-08 06:58:19,0.07,0.93,0.00,24.90,28.14,31.39,14.39,48.99,1016.79,2029.08,3148.68,2878.19,3254.08,600.21,592.61,12.56,0000 0000 0000 0000 000000
2016-03-08 07:03:20,0.07,0.93,0.00,24.89,28.12,31.39,14.46,48.94,1017.05,2029.19,3147.55,2877.34,3253.03,599.98,592.53,12.61,0000 0000 0000 0000 000000
2016-03-08 07:08:22,0.06,0.93,0.00,24.91,28.12,31.38,14.42,48.98,1017.08,2029.12,3146.22,2876.46,3251.97,600.03,592.58,12.66,0000 0000 0000 0000 000000
2016-03-08 07:13:23,0.06,0.94,0.00,24.91,28.11,31.39,14.41,48.91,1017.10,2029.13,3144.81,2875.67,3250.87,600.03,592.59,12.71,0000 0000 0000 0000 000000
2016-03-08 07:18:24,0.07,0.94,0.00,24.91,28.10,31.39,14.39,48.83,1017.08,2029.13,3143.24,2874.75,3249.75,600.01,592.46,12.76,0000 0000 0000 0000 000000
2016-03-08 07:23:25,0.11,0.94,0.00,24.92,28.09,31.38,14.33,48.90,1017.07,2029.26,3141.25,2873.46,3248.37,599.65,592.25,12.81,0000 0000 0000 0000 000000
2016-03-08 07:28:27,0.10,0.95,0.00,24.93,28.07,31.37,14.43,48.93,1017.06,2029.23,3139.15,2872.05,3246.75,599.83,592.26,12.86,0000 0000 0000 0000 000000
2016-03-08 07:33:28,0.11,0.95,0.00,24.93,28.07,31.37,14.40,48.87,1017.06,2029.17,3137.02,2870.57,3244.93,599.90,592.33,12.91,0000 0000 0000 0000 000000
2016-03-08 07:38:29,0.11,0.96,0.00,24.92,28.07,31.35,14.38,48.83,1017.08,2029.34,3134.90,2869.07,3243.24,599.84,592.36,12.96,0000 0000 0000 0000 000000
2016-03-08 07:43:30,0.11,0.97,0.00,24.91,28.05,31.36,14.42,48.99,1017.08,2029.68,3133.24,2867.91,3241.87,600.07,592.72,13.01,0000 0000 0000 0000 000000
2016-03-08 07:48:31,0.08,0.97,0.00,24.90,28.05,31.33,14.42,48.91,1017.10,2029.64,3131.48,2866.71,3240.44,599.90,592.46,13.07,0000 0000 0000 0000 000000
2016-03-08 07:53:33,0.10,0.98,0.00,24.91,28.05,31.34,14.49,48.87,1017.10,2029.64,3129.50,2865.37,3238.91,600.07,592.58,13.12,0000 0000 0000 0000 000000
2016-03-08 07:58:34,0.10,0.98,0.00,24.92,28.04,31.36,14.33,48.75,1017.10,2029.75,3127.69,2864.18,3237.52,599.74,592.23,13.17,0000 0000 0000 0000 000000
2016-03-08 08:03:35,0.08,0.99,0.00,24.91,28.03,31.34,14.40,48.76,1017.10,2029.79,3125.87,2863.03,3236.13,599.82,592.36,13.22,0000 0000 0000 0000 000000
2016-03-08 08:08:37,0.10,0.99,0.00,24.93,28.02,31.33,14.47,48.88,1017.10,2029.83,3124.06,2861.81,3234.72,600.12,592.55,13.27,0000 0000 0000 0000 000000
2016-03-08 08:13:38,0.08,1.00,0.00,24.93,28.02,31.32,14.37,48.75,1017.10,2029.86,3122.24,2860.57,3233.31,599.97,592.44,13.32,0000 0000 0000 0000 000000
2016-03-08 08:18:39,0.09,1.00,0.00,24.92,28.02,31.33,14.40,48.83,1017.10,2029.95,3120.48,2859.43,3231.90,599.92,592.36,13.37,0000 0000 0000 0000 000000
2016-03-08 08:23:40,0.07,1.00,0.00,24.92,28.02,31.33,14.39,48.71,1017.10,2029.95,3119.00,2858.43,3230.61,599.96,592.41,13.42,0000 0000 0000 0000 000000
2016-03-08 08:28:42,0.06,1.01,0.00,24.92,28.00,31.33,14.49,48.73,1017.10,2029.94,3117.70,2857.59,3229.58,599.97,592.47,13.47,0000 0000 0000 0000 000000
2016-03-08 08:33:43,0.07,1.01,0.00,24.92,28.00,31.32,14.49,48.83,1017.10,2029.97,3116.15,2856.59,3228.39,600.27,592.74,13.52,0000 0000 0000 0000 000000
2016-03-08 08:38:44,0.07,1.02,0.00,24.91,28.00,31.33,14.37,48.78,1017.10,2029.98,3114.50,2855.64,3227.36,599.82,592.32,13.57,0000 0000 0000 0000 000000
2016-03-08 08:43:46,0.08,1.02,0.00,24.90,27.98,31.33,14.29,48.75,1017.10,2029.98,3112.82,2854.59,3226.11,599.92,592.38,13.62,0000 0000 0000 0000 000000
2016-03-08 08:48:47,0.07,1.02,0.00,24.92,27.97,31.32,14.48,48.92,1017.10,2029.98,3111.26,2853.51,3224.78,600.09,592.58,13.67,0000 0000 0000 0000 000000
2016-03-08 08:53:48,0.07,1.03,0.00,24.90,27.97,31.32,14.50,48.76,1017.10,2029.99,3109.85,2852.45,3223.55,600.15,592.59,13.72,0000 0000 0000 0000 000000
2016-03-08 08:58:49,0.06,1.03,0.00,24.92,27.97,31.33,14.40,48.66,1017.10,2029.98,3108.52,2851.56,3222.36,600.10,592.38,13.77,0000 0000 0000 0000 000000
2016-03-08 09:03:51,0.06,1.03,0.00,24.90,27.96,31.32,14.44,48.65,1017.11,2029.98,3107.17,2850.64,3221.14,599.94,592.46,13.82,0000 0000 0000 0000 000000
2016-03-08 09:08:52,0.07,1.04,0.00,24.91,27.95,31.32,14.32,48.62,1017.11,2029.97,3105.65,2849.68,3220.05,599.67,592.17,13.87,0000 0000 0000 0000 000000
2016-03-08 09:13:53,0.07,1.04,0.00,24.90,27.95,31.31,14.40,48.63,1017.13,2029.99,3104.18,2848.76,3218.87,599.98,592.57,13.92,0000 0000 0000 0000 000000
2016-03-08 09:18:55,0.08,1.05,0.00,24.89,27.95,31.31,14.46,48.66,1017.12,2029.99,3102.48,2847.76,3217.74,599.88,592.42,13.97,0000 0000 0000 0000 000000
2016-03-08 09:23:56,0.09,1.05,0.00,24.90,27.94,31.31,14.45,48.82,1017.11,2029.98,3100.63,2846.53,3216.37,600.12,592.68,14.02,0000 0000 0000 0000 000000
2016-03-08 09:28:57,0.08,1.05,0.00,24.89,27.92,31.31,14.46,48.73,1017.11,2029.98,3099.21,2845.43,3214.93,600.05,592.61,14.07,0000 0000 0000 0000 000000
2016-03-08 09:33:59,0.09,1.06,0.00,24.88,27.92,31.31,14.51,48.82,1017.11,2029.99,3097.19,2844.26,3213.60,600.40,592.93,14.12,0000 0000 0000 0000 000000
2016-03-08 09:39:00,0.07,1.06,0.00,24.90,27.92,31.29,14.42,48.74,1017.12,2029.99,3095.46,2843.13,3212.46,599.94,592.58,14.17,0000 0000 0000 0000 000000
2016-03-08 09:44:01,0.07,1.07,0.00,24.90,27.92,31.29,14.52,48.66,1017.14,2029.98,3094.04,2842.15,3211.06,600.32,592.86,14.22,0000 0000 0000 0000 000000
2016-03-08 09:49:02,0.07,1.07,0.00,24.87,27.90,31.30,14.46,48.74,1017.20,2029.98,3092.40,2841.12,3209.86,599.92,592.54,14.27,0000 0000 0000 0000 000000
2016-03-08 09:54:03,0.08,1.08,0.00,24.87,27.90,31.29,14.37,48.60,1017.22,2029.99,3090.80,2840.10,3208.73,599.76,592.50,14.32,0000 0000 0000 0000 000000
2016-03-08 09:59:05,0.07,1.08,0.00,24.89,27.90,31.28,14.34,48.53,1017.18,2029.99,3089.33,2839.15,3207.51,600.35,592.96,14.37,0000 0000 0000 0000 000000
2016-03-08 10:04:06,0.07,1.08,0.00,24.88,27.90,31.28,14.38,48.56,1017.17,2029.99,3087.73,2838.14,3206.38,599.82,592.36,14.42,0000 0000 0000 0000 000000
2016-03-08 10:09:07,0.08,1.09,0.00,24.88,27.90,31.28,14.41,48.67,1017.29,2029.99,3086.14,2837.06,3205.01,599.81,592.48,14.47,0000 0000 0000 0000 000000
2016-03-08 10:14:09,0.08,1.09,0.00,24.87,27.90,31.29,14.46,48.72,1017.35,2029.98,3084.46,2835.97,3203.72,600.08,592.88,14.52,0000 0000 0000 0000 000000
2016-03-08 10:19:10,0.07,1.10,0.00,24.86,27.90,31.29,14.46,48.62,1017.47,2029.99,3082.89,2834.89,3202.53,600.04,592.78,14.57,0000 0000 0000 0000 000000
2016-03-08 10:24:11,0.09,1.10,0.00,24.87,27.88,31.29,14.43,48.61,1017.52,2029.99,3081.07,2833.74,3201.13,599.90,592.71,14.62,0000 0000 0000 0000 000000
2016-03-08 10:29:13,0.08,1.10,0.00,24.86,27.87,31.27,14.47,48.81,1017.57,2029.99,3079.48,2832.71,3199.79,600.12,592.98,14.67,0000 0000 0000 0000 000000
2016-03-08 10:34:15,0.06,1.11,0.00,24.85,27.87,31.26,14.36,48.65,1017.52,2029.99,3077.98,2831.76,3198.71,599.59,592.45,14.72,0000 0000 0000 0000 000000
2016-03-08 10:39:16,0.08,1.11,0.00,24.86,27.87,31.26,14.38,48.65,1017.49,2029.99,3076.53,2830.75,3197.55,600.02,592.92,14.77,0000 0000 0000 0000 000000
2016-03-08 10:44:17,0.08,1.12,0.00,24.85,27.87,31.26,14.46,48.69,1017.56,2029.99,3074.71,2829.64,3196.34,600.08,592.90,14.82,0000 0000 0000 0000 000000
2016-03-08 10:49:19,0.08,1.12,0.00,24.85,27.87,31.25,14.49,48.77,1017.46,2029.99,3073.03,2828.57,3194.96,600.26,593.08,14.87,0000 0000 0000 0000 000000
2016-03-08 10:54:20,0.08,1.12,0.00,24.85,27.86,31.25,14.48,48.76,1017.52,2029.99,3071.42,2827.49,3193.72,599.96,592.56,14.92,0000 0000 0000 0000 000000
2016-03-08 10:59:21,0.07,1.13,0.00,24.83,27.85,31.26,14.35,48.58,1017.55,2029.99,3070.08,2826.49,3192.51,599.85,592.79,14.97,0000 0000 0000 0000 000000
2016-03-08 11:04:22,0.07,1.13,0.00,24.84,27.85,31.25,14.43,48.68,1017.54,2029.99,3068.67,2825.59,3191.36,599.81,592.74,15.02,0000 0000 0000 0000 000000
2016-03-08 11:09:24,0.08,1.14,0.00,24.85,27.85,31.26,14.42,48.63,1017.37,2029.99,3067.05,2824.55,3190.09,600.00,592.79,15.07,0000 0000 0000 0000 000000
2016-03-08 11:14:26,0.08,1.14,0.00,24.85,27.85,31.25,14.36,48.62,1017.24,2029.99,3065.26,2823.46,3188.79,599.90,592.59,15.12,0000 0000 0000 0000 000000
2016-03-08 11:19:27,0.08,1.15,0.00,24.84,27.85,31.25,14.45,48.83,1017.30,2029.99,3063.39,2822.24,3187.50,600.07,592.74,15.17,0000 0000 0000 0000 000000
2016-03-08 11:24:28,0.07,1.15,0.00,24.85,27.85,31.26,14.49,48.72,1017.29,2029.99,3062.04,2821.24,3186.16,600.19,592.97,15.23,0000 0000 0000 0000 000000
2016-03-08 11:29:30,0.09,1.15,0.00,24.83,27.85,31.25,14.36,48.56,1017.13,2029.99,3060.30,2820.21,3184.86,599.79,592.43,15.28,0000 0000 0000 0000 000000
2016-03-08 11:34:31,0.08,1.16,0.00,24.83,27.85,31.24,14.43,48.75,1017.12,2029.99,3058.47,2819.04,3183.63,600.07,592.80,15.33,0000 0000 0000 0000 000000
2016-03-08 11:39:32,0.09,1.16,0.00,24.82,27.84,31.24,14.41,48.65,1017.11,2029.99,3056.79,2817.94,3182.34,599.71,592.39,15.38,0000 0000 0000 0000 000000
2016-03-08 11:44:34,0.07,1.17,0.00,24.82,27.82,31.25,14.47,48.63,1017.11,2029.99,3055.45,2816.93,3181.02,600.27,592.94,15.43,0000 0000 0000 0000 000000
2016-03-08 11:49:35,0.07,1.17,0.00,24.84,27.82,31.25,14.35,48.59,1017.11,2029.99,3053.97,2816.03,3179.75,599.65,592.30,15.48,0000 0000 0000 0000 000000
2016-03-08 11:54:36,0.07,1.17,0.00,24.83,27.82,31.25,14.38,48.54,1017.11,2029.99,3052.62,2815.15,3178.56,600.05,592.74,15.53,0000 0000 0000 0000 000000
2016-03-08 11:59:38,0.08,1.18,0.00,24.82,27.82,31.24,14.40,48.48,1017.11,2029.99,3050.87,2814.14,3177.50,599.96,592.64,15.58,0000 0000 0000 0000 000000
2016-03-08 12:04:39,0.08,1.18,0.00,24.83,27.82,31.24,14.35,48.48,1017.11,2029.99,3048.94,2813.04,3176.30,599.78,592.48,15.63,0000 0000 0000 0000 000000
2016-03-08 12:09:40,0.07,1.19,0.00,24.82,27.80,31.24,14.36,48.54,1017.11,2029.99,3047.33,2812.07,3175.09,600.01,592.57,15.68,0000 0000 0000 0000 000000
2016-03-08 12:14:42,0.08,1.19,0.00,24.81,27.80,31.26,14.40,48.73,1017.10,2029.99,3045.54,2811.07,3173.83,599.81,592.77,15.73,0000 0000 0000 0000 000000
2016-03-08 12:19:43,0.07,1.19,0.00,24.79,27.80,31.25,14.45,48.67,1017.09,2029.99,3044.20,2810.00,3172.57,600.17,592.97,15.78,0000 0000 0000 0000 000000
2016-03-08 12:24:44,0.07,1.20,0.00,24.79,27.79,31.24,14.42,48.54,1017.02,2029.99,3042.68,2809.05,3171.45,599.81,592.52,15.83,0000 0000 0000 0000 000000
2016-03-08 12:29:45,0.08,1.20,0.00,24.79,27.77,31.25,14.36,48.44,1016.83,2029.99,3040.94,2808.09,3170.31,599.85,592.49,15.88,0000 0000 0000 0000 000000
2016-03-08 12:34:47,0.06,1.21,0.00,24.78,27.77,31.25,14.41,48.48,1016.98,2029.99,3039.52,2807.06,3169.11,599.74,592.43,15.93,0000 0000 0000 0000 000000
2016-03-08 12:39:48,0.08,1.21,0.00,24.77,27.77,31.25,14.43,48.43,1016.75,2029.99,3037.67,2806.02,3167.96,600.21,592.83,15.98,0000 0000 0000 0000 000000
2016-03-08 12:44:49,0.08,1.21,0.00,24.77,27.75,31.26,14.34,48.56,1016.77,2029.99,3035.89,2805.05,3166.74,600.03,592.68,16.03,0000 0000 0000 0000 000000
2016-03-08 12:49:51,0.07,1.22,0.00,24.78,27.75,31.25,14.36,48.45,1016.67,2030.02,3034.54,2804.06,3165.67,599.87,592.52,16.08,0000 0000 0000 0000 000000
2016-03-08 12:54:52,0.06,1.22,0.00,24.78,27.75,31.24,14.40,48.44,1016.63,2030.03,3033.09,2803.10,3164.53,599.84,592.39,16.13,0000 0000 0000 0000 000000